GW0759 Weather Reports


Display with metric or nautical units.
time (UTC)temp
F
wind
direction
speed
MPH
gust
MPH
rain 1hr
in
rain 24hr
in
rain mn
in
humidity
%
barometer
mb
20260505041548 73 194 4.0 15.0 0.00 0.00 0.00 74 1004.9
20260505040051 73 128 5.0 13.0 0.00 0.00 0.00 74 1005.2
20260505034551 73 163 5.0 15.0 0.00 0.00 0.00 74 1005.1
20260505033052 73 175 4.0 16.0 0.00 0.00 0.00 74 1004.9
20260505031551 73 218 6.0 15.0 0.00 0.00 0.00 74 1004.6
20260505030050 73 130 5.0 12.0 0.00 0.00 0.00 73 1004.9
20260505024552 74 131 5.0 15.0 0.00 0.00 0.00 73 1004.8
20260505023054 74 161 5.0 14.0 0.00 0.00 0.00 73 1004.6
20260505021553 74 93 4.0 11.0 0.00 0.00 0.00 73 1004.6
20260505020055 74 103 4.0 11.0 0.00 0.00 0.00 72 1004.4
20260505014600 74 90 3.0 11.0 0.00 0.00 0.00 72 1004.3
20260505013056 74 137 3.0 11.0 0.00 0.00 0.00 71 1004.4
20260505011554 74 170 3.0 9.0 0.00 0.00 0.00 71 1004.2
20260505010112 75 161 3.0 13.0 0.00 0.00 0.00 70 1004.2
20260505004559 75 87 5.0 13.0 0.00 0.00 0.00 69 1004.4
20260505003058 76 217 5.0 14.0 0.00 0.00 0.00 69 1004.6
20260505001552 77 163 6.0 13.0 0.00 0.00 0.00 67 1004.7
20260505000053 77 248 5.0 17.0 0.00 0.00 0.00 66 1004.9
20260504234551 78 140 5.0 14.0 0.00 0.00 0.00 64 1005.0
20260504233055 78 178 5.0 16.0 0.00 0.00 0.00 64 1004.9
20260504231557 79 225 7.0 17.0 0.00 0.00 0.00 62 1005.2
20260504230050 80 193 8.0 17.0 0.00 0.00 0.00 61 1005.3
20260504224552 80 159 6.0 16.0 0.00 0.00 0.00 61 1005.4
20260504223101 80 135 6.0 14.0 0.00 0.00 0.00 59 1005.4
20260504221606 80 160 8.0 19.0 0.00 0.00 0.00 59 1005.6
20260504220056 79 180 6.0 17.0 0.00 0.00 0.00 60 1005.7
20260504214559 80 136 7.0 20.0 0.00 0.00 0.00 60 1005.9
20260504213109 81 207 6.0 18.0 0.00 0.00 0.00 59 1006.0
20260504211549 81 216 6.0 18.0 0.00 0.00 0.00 58 1006.2
20260504210054 82 165 5.0 17.0 0.00 0.00 0.00 58 1006.6
20260504204553 82 155 9.0 19.0 0.00 0.00 0.00 57 1006.7
20260504203051 82 157 9.0 16.0 0.00 0.00 0.00 57 1007.1
20260504201552 81 155 8.0 21.0 0.00 0.00 0.00 59 1007.4
20260504200054 80 139 9.0 20.0 0.00 0.00 0.00 58 1007.6
20260504194557 81 205 7.0 17.0 0.00 0.00 0.00 60 1007.9
20260504193049 80 200 6.0 15.0 0.00 0.00 0.00 60 1008.2
20260504191554 79 191 7.0 17.0 0.00 0.00 0.00 61 1008.2
20260504190047 79 162 7.0 17.0 0.00 0.00 0.00 61 1008.6
20260504184555 79 186 9.0 16.0 0.00 0.00 0.00 60 1008.9
20260504183056 77 194 7.0 17.0 0.00 0.00 0.00 62 1009.1
20260504181601 77 197 6.0 17.0 0.00 0.00 0.00 62 1009.3
20260504180053 76 149 7.0 17.0 0.00 0.00 0.00 62 1009.6
20260504174549 77 204 6.0 17.0 0.00 0.00 0.00 63 1009.8
20260504173052 76 96 8.0 18.0 0.00 0.00 0.00 63 1009.9
20260504171552 75 187 5.0 17.0 0.00 0.00 0.00 64 1010.3
20260504150108 68 115 7.0 19.0 0.00 0.00 0.00 72 1011.5
20260504081554 59 153 2.0 6.0 0.00 0.00 0.00 78 1012.3
20260504080112 59 182 2.0 8.0 0.00 0.00 0.00 77 1012.6